Location: Elliott Corner
(37.4627°N, 119.7746°W)
Time: 20:26:59
(UTC+00:00)

Cosmos 1825 Rocket - Pass Details

Date: 10 September 2024
Orbit: 599 x 626 km, 82.5° (Epoch: 11 October)

Event Time Altitude Azimuth Distance (km) Brightness Sun altitude
Rises 12:54:18 0° 345° (NNW) 2,918 7.0 -9.3°
Reaches altitude 10° 12:56:38 10° 339° (NNW) 2,003 6.1 -8.8°
Maximum altitude 13:00:50 43° 268° (W) 870 3.9 -8.0°
Drops below altitude 10° 13:04:58 10° 196° (SSW) 1,973 5.9 -7.2°
Sets 13:07:15 0° 190° (S) 2,868 6.8 -6.8°
